Showing default

VSP ROSE, 59124

Orbit data source: Space-Track

VSP ROSE, 59124 is a payload satellite owned by Aerospacelab (BE) in SSO that was launched on Mon, 04 Mar 2024 UTC via an FALCON 9 launch vehicle from the Air Force Western Test Range (AFWTR). Payloads include a variety of satellites, spacecraft, and rockets equipped with specific instruments for various scientific and technological missions. These include communications satellites like Starlink; space stations such as the ISS; scientific satellites like the Hubble; Earth observation satellites from companies like Planet Labs, Umbra, and HawkEye 360; GPS; miniature CubeSats for education and research; and military/defense satellites.

Loading next visibility...
VSP ROSE details
Identifier
59124, 2024-043AC
Orbit
SSO
Last TLE update8 hours ago
Origin
Flag of BEAerospacelab (BE / BEL)
ManufacturerAerospacelab
MissionOperational Commercial Communications
Bus & MotorAEROSP, Unknown motor
Mass~200 kg wet, ~200 kg dry
Launch date (UTC)
2024-03-04 (11 months ago)
Launch vehicle
FALCON 9
Launch site
Air Force Western Test Range (AFWTR)
Object type
Payload
Rocket body
Debris
Shape & HBRBox, 0.05 m
Radar Cross Section0.004 m², Medium (>0.1 m² and < 1m²)

Expand to show TLE details & history

TLE from 8 hours ago
0 VSP ROSE
1 59124U 24043AC  25037.70916559  .00009635  00000-0  41812-3 0  9995
2 59124  97.4951 165.7445 0012051 184.7416 175.3708 15.22484269 51437
Epoch: 2025-02-06T17:01Z
Definitive object data (Epoch: 2025-02-06T17:01:11.906Z)
Latitude-0.00006°
Longitude133.36304°
Altitude509.703 km
Speed7.605 km/s
True Right ascension11h 02m 58s
True Declination0° 00' 00"
Sunlit
Object was in full shadow at TLE epoch
Visualization TLE readout
Latitude46.36985°
Longitude125.81035°
Altitude511.555 km
Speed7.609 km/s
Apparent Right ascension12h 56m 38s
Apparent Declination6° 28' 12"
Sunlit
Object is in full shadow
Visualization observer readout
Local Sidereal Time03:15:53
Azimuth42.926° NE
Elevation-33.6°
Doppler factor1
Orbital elements
Apogee altitude503.6 km
Perigee altitude487.033 km
Semi-major axis6,873.453 km
Eccentricity0.0012051
Inclination97.4951°
RAAN165.7445°
Arg. of periapsis184.7416°
True anomaly175.38193°
Mean anomaly175.3708°
Eccentric anomaly175.37637°
Mean motion3.80873 °/min
BSTAR0.00041812
Orbital period94.52 mins
Loading maneuver chart data...
Loading historical data...
Loading historical data...
Loading historical data...
Loading historical data...
Loading historical data...
Loading historical data...
Loading historical data...

VSP ROSE Visibility forecast

Observer location: undefined°, undefined

Span
Click to sort rows by Start time (UTC) header in descending order
Start Az.
Max El. time (UTC)
Max El. Az.
Max El.
End time (UTC)
End Az.
5 mins2025-02-07 08:55:42.405Z203.002° SW2025-02-07 08:57:42.405Z251.443° W30.545°2025-02-07 09:00:42.405Z325.608° NNW
4 mins2025-02-07 21:59:42.405Z320.671° NNW2025-02-07 22:00:42.405Z295.068° NW23.241°2025-02-07 22:03:42.405Z234.17° WSW
|